[[{"header":{"parameterUnit":"m.s-1","parameterCategory":1,"la1":30.2991,"la2":30.254,"lo1":-89.0895,"lo2":-89.0444,"dy":0.0017,"dx":0.0017,"nx":28,"ny":28,"refTime":"2025-12-20T09:00:00:Z","depth":0,"parameterNumber":2,"parameterNumberName":"U-component_of_WINDS"},"data":[0,0,0,0,0,0,0,0,0,0,0,0,0,0,0,0,0,0,0,0,0,0,0,0,0,0,0,0,0,0,0,0,0,0,0,0,0,0,0,0,0,0,0,0,0,0,0,0,0,0,0,0,0,0,0,0,0,0,-1.7348,-1.7348,0,-1.7361,-1.7361,-1.7361,-1.7313,-1.7312,-1.731,-1.7309,-1.7324,-1.7326,-1.7328,0,0,0,0,0,0,0,0,0,0,0,0,0,-1.7284,-1.7285,-1.7348,-1.7348,-1.7348,-1.7361,-1.7361,-1.7361,-1.7314,-1.7312,-1.731,-1.7308,-1.7324,-1.7326,-1.7328,0,0,0,0,0,0,0,0,0,0,0,0,0,-1.7306,-1.7286,-1.7348,-1.7326,-1.7324,-1.7361,-1.7361,-1.7361,-1.7314,-1.7312,-1.731,-1.7308,-1.7323,-1.7326,-1.7328,-1.7387,0,0,-1.7336,-1.7337,0,0,0,0,0,0,0,0,-1.7305,-1.7308,-1.7329,-1.7327,-1.7325,-1.7333,-1.7344,-1.737,-1.7314,-1.7318,-1.7309,-1.7307,-1.7329,-1.7331,-1.7338,-1.7388,-1.7389,-1.7336,-1.7338,-1.7339,-1.734,0,0,0,0,0,0,0,-1.7303,-1.7307,-1.7353,-1.7329,-1.7327,-1.7316,-1.7317,-1.7349,-1.7335,-1.7317,-1.7314,-1.7316,-1.7328,-1.7336,-1.7338,-1.7389,-1.7336,-1.7339,-1.734,-1.7341,-1.7489,-1.7492,0,0,0,0,0,0,-1.7304,-1.7306,-1.7352,-1.7353,-1.7309,-1.7319,-1.732,-1.7333,-1.7335,-1.7333,-1.7318,-1.7314,-1.7333,-1.7335,-1.7339,-1.7409,-1.7339,-1.7342,-1.7343,-1.7487,-1.749,-1.7492,0,0,0,0,0,0,-1.7303,-1.7309,-1.7352,-1.7329,-1.7334,-1.7322,-1.7337,-1.7334,-1.7342,-1.7335,-1.7333,-1.7328,-1.7331,-1.7335,-1.7376,-1.7409,-1.7343,-1.7345,-1.7484,-1.7488,-1.7491,-1.7549,0,0,0,0,0,0,-1.7301,-1.7309,-1.733,-1.733,-1.7335,-1.7388,-1.7339,-1.7336,-1.7347,-1.7342,-1.7345,-1.7343,-1.733,-1.7372,-1.7378,-1.7411,-1.7347,-1.7481,-1.7486,-1.749,-1.7544,-1.7554,-1.7562,0,0,0,0,0,-1.7299,-1.7346,-1.7332,-1.7337,-1.7362,-1.739,-1.7393,-1.7376,-1.735,-1.7372,-1.7367,-1.7343,-1.7404,-1.7377,-1.7383,-1.7417,-1.7479,-1.7485,-1.749,-1.754,-1.7552,-1.7562,0,0,0,0,0,0,-1.7351,-1.7346,-1.7329,-1.7377,-1.7385,-1.7382,-1.7409,-1.7389,-1.7405,-1.7399,-1.7378,-1.7379,-1.7424,-1.7425,-1.7394,-1.7475,-1.7437,-1.7444,-1.7473,-1.7484,-1.7493,-1.7492,-1.7349,0,0,0,0,0,-1.7368,-1.7391,-1.7385,-1.7428,-1.7432,-1.742,-1.7432,-1.7418,-1.7425,-1.7428,-1.7427,-1.7435,-1.7456,-1.747,-1.7489,-1.7544,-1.7545,-1.7571,-1.758,-1.7588,-1.7594,-1.7624,-1.7635,-1.751,-1.751,-1.751,0,0,-1.7403,-1.7403,-1.7419,-1.7438,-1.7442,-1.7467,-1.7423,-1.7451,-1.747,-1.7433,-1.7471,-1.7471,-1.7478,-1.7527,-1.7548,-1.7529,-1.7629,-1.7594,-1.7601,-1.7602,-1.763,-1.7642,-1.7653,-1.7514,-1.7513,-1.7512,0,0,-1.748,-1.7482,-1.7518,-1.7523,-1.753,-1.7522,-1.7531,-1.7531,-1.7529,-1.7568,-1.7541,-1.7563,-1.76,-1.7606,-1.7615,-1.7696,-1.7675,-1.7703,-1.7751,-1.7781,-1.779,-1.7799,-1.7828,-1.7839,-1.7709,-1.771,-1.771,0,-1.7523,-1.7558,-1.7539,-1.7569,-1.7579,-1.7547,-1.7584,-1.759,-1.7603,-1.7611,-1.7589,-1.7635,-1.7638,-1.7688,-1.7708,-1.7716,-1.7726,-1.7702,-1.779,-1.7799,-1.7807,-1.7835,-1.7846,-1.7713,-1.7713,-1.7712,-1.7712,0,-1.7611,-1.7636,-1.7665,-1.7678,-1.7691,-1.7725,-1.7712,-1.7728,-1.7714,-1.7708,-1.7748,-1.7751,-1.777,-1.7781,-1.7768,-1.783,-1.7818,-1.7794,-1.7755,-1.7822,-1.7848,-1.7859,-1.7718,-1.7717,-1.7716,-1.7715,0,0,-1.7719,-1.7722,-1.7733,-1.7739,-1.7744,-1.7764,-1.7797,-1.7816,-1.783,-1.784,-1.7868,-1.79,-1.7878,-1.7888,-1.7875,-1.7901,-1.7966,-1.7874,-1.7874,-1.7891,-1.8035,-1.8053,-1.8066,-1.7952,-1.7954,-1.7956,-1.8035,0,-1.7795,-1.785,-1.7834,-1.789,-1.7913,-1.7884,-1.7913,-1.792,-1.7917,-1.7937,-1.7933,-1.7957,-1.7926,-1.7932,-1.7956,-1.7953,-1.7995,-1.7947,-1.7978,-1.798,-1.7977,-1.8079,-1.8098,-1.8172,-1.8045,-1.8046,-1.8048,0,-1.7889,-1.7904,-1.7961,-1.7964,-1.7973,-1.7999,-1.8016,-1.8035,-1.8044,-1.8039,-1.8051,-1.8033,-1.8067,-1.8029,-1.8075,-1.8043,-1.8055,-1.8056,-1.8058,-1.806,-1.8017,-1.8084,-1.8195,-1.8206,-1.8063,-1.8062,-1.8061,0,-1.7963,-1.7996,-1.8035,-1.8041,-1.8045,-1.8064,-1.8067,-1.8073,-1.8086,-1.8101,-1.8109,-1.8128,-1.8138,-1.8154,-1.8142,-1.8115,-1.8191,-1.8151,-1.8189,-1.8189,-1.8205,-1.8204,-1.832,-1.8214,-1.8214,-1.8214,-1.8213,0,-1.8048,-1.8085,-1.8068,-1.8092,-1.8133,-1.8116,-1.8157,-1.8156,-1.8162,-1.8186,-1.8163,-1.8186,-1.817,-1.8192,-1.8184,-1.8224,-1.8229,-1.8227,-1.8224,-1.8229,-1.8229,-1.8236,-1.823,-1.8217,-1.8216,-1.8215,-1.8215,0,-1.8137,-1.8127,-1.8167,-1.8168,-1.817,-1.82,-1.8201,-1.8224,-1.8219,-1.825,-1.8256,-1.8249,-1.8274,-1.8265,-1.8292,-1.8286,-1.8337,-1.8328,-1.8334,-1.8332,-1.837,-1.8366,-1.8493,-1.8509,-1.8393,-1.8395,-1.8395,0,-1.8191,-1.8219,-1.8223,-1.8237,-1.8241,-1.8265,-1.8278,-1.8262,-1.8277,-1.8289,-1.8311,-1.8334,-1.8352,-1.8394,-1.8392,-1.8413,-1.8403,-1.8447,-1.8406,-1.841,-1.8404,-1.8402,-1.8405,-1.8455,-1.8456,-1.8457,-1.8458,0,-1.829,-1.8284,-1.8303,-1.8321,-1.8337,-1.835,-1.8362,-1.8375,-1.8361,-1.8379,-1.8404,-1.8418,-1.8446,-1.8469,-1.8488,-1.8492,-1.8473,-1.8471,-1.8481,-1.8485,-1.8488,-1.8487,-1.8356,-1.8468,-1.8467,-1.8466,-1.8465,-1.8465,-1.8363,-1.8386,-1.8393,-1.8415,-1.8422,-1.8434,-1.8456,-1.8454,-1.8475,-1.8495,-1.8486,-1.8516,-1.8525,-1.8548,-1.8555,-1.8579,-1.8562,-1.8576,-1.8579,-1.8583,-1.8588,-1.8485,-1.8582,-1.8582,-1.8581,-1.8581,-1.8581,0,-1.846,-1.8463,-1.8484,-1.8501,-1.8519,-1.8499,-1.8511,-1.8528,-1.8554,-1.8564,-1.8582,-1.8612,-1.8635,-1.8635,-1.8657,-1.8676,-1.8668,-1.8682,-1.868,-1.8682,-1.8602,-1.8591,-1.8689,-1.8689,-1.8688,-1.8688,-1.8688,-1.8688,-1.8513,-1.8551,-1.8547,-1.8589,-1.8592,-1.862,-1.8629,-1.864,-1.8648,-1.8682,-1.8701,-1.8701,-1.8707,-1.873,-1.8751,-1.875,-1.8759,-1.8777,-1.8773,-1.8698,-1.8687,-1.8677,-1.8667,-1.8779,-1.8779,-1.8852,-1.8852,-1.8853]},{"header":{"parameterUnit":"m.s-1","parameterCategory":1,"la1":30.2991,"la2":30.254,"lo1":-89.0895,"lo2":-89.0444,"dy":0.0017,"dx":0.0017,"nx":28,"ny":28,"refTime":"2025-12-20T09:00:00:Z","depth":0,"parameterNumber":3,"parameterNumberName":"V-component_of_WINDS"},"data":[0,0,0,0,0,0,0,0,0,0,0,0,0,0,0,0,0,0,0,0,0,0,0,0,0,0,0,0,0,0,0,0,0,0,0,0,0,0,0,0,0,0,0,0,0,0,0,0,0,0,0,0,0,0,0,0,0,0,1.1677,1.1677,0,1.1672,1.1672,1.1672,1.168,1.168,1.168,1.1681,1.1673,1.1672,1.1672,0,0,0,0,0,0,0,0,0,0,0,0,0,1.1692,1.1692,1.1677,1.1677,1.1677,1.1672,1.1672,1.1672,1.168,1.168,1.168,1.1681,1.1673,1.1672,1.1672,0,0,0,0,0,0,0,0,0,0,0,0,0,1.1686,1.1692,1.1677,1.1681,1.1681,1.1672,1.1672,1.1672,1.168,1.168,1.1681,1.1681,1.1673,1.1672,1.1672,1.1658,0,0,1.1669,1.1669,0,0,0,0,0,0,0,0,1.1687,1.1686,1.168,1.168,1.1681,1.1677,1.1674,1.1667,1.168,1.168,1.1681,1.1681,1.1674,1.1673,1.1671,1.1658,1.1658,1.1669,1.1669,1.1669,1.1668,0,0,0,0,0,0,0,1.1687,1.1686,1.1675,1.168,1.168,1.1682,1.1681,1.1673,1.1674,1.168,1.1681,1.168,1.1674,1.1671,1.1671,1.1658,1.1669,1.1669,1.1668,1.1668,1.1634,1.1633,0,0,0,0,0,0,1.1687,1.1686,1.1675,1.1675,1.1685,1.1681,1.1681,1.1678,1.1675,1.1674,1.168,1.168,1.1672,1.1671,1.167,1.1655,1.1669,1.1668,1.1667,1.1634,1.1633,1.1633,0,0,0,0,0,0,1.1688,1.1686,1.1675,1.1681,1.1679,1.168,1.1677,1.1677,1.1675,1.1674,1.1674,1.1677,1.1673,1.1671,1.1662,1.1655,1.1668,1.1667,1.1635,1.1634,1.1633,1.1624,0,0,0,0,0,0,1.1688,1.1686,1.1682,1.1681,1.1679,1.1667,1.1677,1.1677,1.1674,1.1675,1.1672,1.1672,1.1673,1.1663,1.1661,1.1654,1.1666,1.1635,1.1634,1.1633,1.1625,1.1623,1.1621,0,0,0,0,0,1.1689,1.1679,1.1682,1.168,1.1674,1.1667,1.1666,1.1668,1.1674,1.1669,1.1668,1.1672,1.1656,1.1661,1.166,1.1652,1.1636,1.1635,1.1634,1.1626,1.1623,1.1621,0,0,0,0,0,0,1.1679,1.1679,1.1682,1.1672,1.1669,1.1668,1.1663,1.1666,1.1661,1.1662,1.1665,1.1664,1.1653,1.1652,1.1658,1.1639,1.1646,1.1645,1.1641,1.1639,1.1637,1.1638,1.1666,0,0,0,0,0,1.1675,1.1671,1.1671,1.1662,1.1661,1.1662,1.1659,1.1661,1.1658,1.1657,1.1656,1.1652,1.1646,1.1642,1.1637,1.1624,1.1624,1.1618,1.1617,1.1615,1.1614,1.1607,1.1605,1.1629,1.1629,1.1629,0,0,1.1668,1.1668,1.1665,1.166,1.1658,1.1653,1.1661,1.1654,1.165,1.1656,1.1647,1.1645,1.1642,1.163,1.1625,1.1629,1.1607,1.1614,1.1613,1.1612,1.1606,1.1603,1.1601,1.1629,1.1629,1.1629,0,0,1.1653,1.1652,1.1645,1.1643,1.1641,1.1642,1.164,1.1639,1.1638,1.1629,1.1633,1.1628,1.1618,1.1615,1.1612,1.1596,1.1599,1.1594,1.1585,1.1578,1.1576,1.1574,1.1568,1.1566,1.1592,1.1592,1.1592,0,1.1645,1.1637,1.164,1.1634,1.1632,1.1637,1.1629,1.1627,1.1623,1.1621,1.1625,1.1612,1.161,1.1598,1.1594,1.1592,1.1589,1.1594,1.1576,1.1574,1.1573,1.1567,1.1565,1.1592,1.1592,1.1592,1.1592,0,1.1627,1.1621,1.1615,1.1612,1.1609,1.1602,1.1603,1.16,1.1602,1.1602,1.1592,1.159,1.1584,1.1581,1.1583,1.157,1.1572,1.1576,1.1583,1.157,1.1565,1.1562,1.1591,1.1591,1.1591,1.1591,0,0,1.1605,1.1604,1.1602,1.1601,1.1598,1.1594,1.1587,1.1582,1.1578,1.1575,1.1569,1.156,1.1564,1.1561,1.1562,1.1556,1.1543,1.1561,1.1561,1.1558,1.1528,1.1525,1.1523,1.1545,1.1545,1.1544,1.1528,0,1.159,1.1579,1.1582,1.157,1.1565,1.157,1.1563,1.1561,1.1561,1.1556,1.1555,1.1549,1.1555,1.1553,1.1547,1.1546,1.1537,1.1547,1.1539,1.1538,1.154,1.152,1.1517,1.1502,1.1526,1.1526,1.1526,0,1.1572,1.1568,1.1557,1.1555,1.1553,1.1548,1.1543,1.1539,1.1536,1.1536,1.1532,1.1535,1.1527,1.1534,1.1522,1.1529,1.1525,1.1524,1.1524,1.1523,1.1531,1.1519,1.1497,1.1495,1.1522,1.1523,1.1523,0,1.1557,1.155,1.1542,1.1541,1.1539,1.1535,1.1534,1.1531,1.1528,1.1524,1.1522,1.1516,1.1513,1.1509,1.1509,1.1514,1.1497,1.1504,1.1497,1.1497,1.1493,1.1494,1.1471,1.1491,1.1491,1.1491,1.1491,0,1.1541,1.1533,1.1536,1.1531,1.1523,1.1525,1.1516,1.1516,1.1513,1.1508,1.1511,1.1506,1.1507,1.1501,1.1501,1.1492,1.149,1.149,1.149,1.1489,1.149,1.1487,1.1488,1.149,1.149,1.149,1.1491,0,1.1524,1.1525,1.1517,1.1516,1.1516,1.1509,1.1508,1.1503,1.1503,1.1496,1.1494,1.1494,1.1487,1.1488,1.148,1.148,1.1468,1.1469,1.1469,1.147,1.1462,1.1463,1.1437,1.1434,1.1456,1.1456,1.1456,0,1.1513,1.1508,1.1506,1.1503,1.1502,1.1497,1.1494,1.1496,1.1492,1.1489,1.1484,1.1478,1.1473,1.1462,1.146,1.1454,1.1455,1.1447,1.1455,1.1454,1.1455,1.1456,1.1455,1.1446,1.1445,1.1445,1.1445,0,1.1494,1.1495,1.1491,1.1487,1.1484,1.1481,1.1478,1.1475,1.1476,1.1472,1.1466,1.1462,1.1454,1.1448,1.1442,1.144,1.1442,1.1443,1.144,1.144,1.1441,1.144,1.1466,1.1443,1.1443,1.1443,1.1444,1.1444,1.148,1.1476,1.1474,1.1469,1.1467,1.1465,1.146,1.1459,1.1455,1.1449,1.145,1.1443,1.1439,1.1432,1.1429,1.1423,1.1426,1.1423,1.1422,1.1421,1.1421,1.1441,1.1422,1.1422,1.1422,1.1422,1.1422,0,1.1462,1.1461,1.1457,1.1453,1.1449,1.1452,1.1449,1.1445,1.1439,1.1436,1.1432,1.1424,1.1418,1.1416,1.1409,1.1405,1.1406,1.1403,1.1403,1.1403,1.1418,1.1421,1.1402,1.1402,1.1402,1.1402,1.1402,1.1402,1.1452,1.1444,1.1445,1.1436,1.1435,1.1429,1.1426,1.1424,1.1421,1.1413,1.1408,1.1407,1.1404,1.1398,1.1392,1.1391,1.1389,1.1385,1.1385,1.14,1.1402,1.1404,1.1406,1.1385,1.1385,1.137,1.137,1.137]}]]